カタログに戻る

METEOR 2-11 DEB

運用中PO
NORAD 42453·DEBRIS·🇷🇺 Russia

打ち上げ Jul 5, 1984 から Plesetsk Cosmodrome

Loading…

次のパス (今後24時間)

TLE

古いSource: Space-Track

元期: Aug 30, 2026, 12:38 UTC

1 42453U 84072P   26242.52696735  .00001241  00000-0  85838-3 0  9991
2 42453  82.5303 316.5212 0011981 134.8729 225.3414 13.98328614587753

AllMySatでMETEOR 2-11 DEBをリアルタイム追跡

Download on the App Store